Location: Unspecified
(41.7000°N, 0.0000°E)
Time: 19:08:30
(UTC+00:00)

Cosmos 676 Rocket - Visible Passes

Search period start: 04 April 2026 00:00
Search period end: 14 April 2026 00:00
Orbit: 749 x 780 km, 74.0° (Epoch: 29 March)

Date Brightness Start Highest point End Pass type
(mag) Time Alt. Az. Time Alt. Az. Time Alt. Az.
4 Apr 6.9 00:54:04 10° NE 00:55:23 11° NE 00:56:25 10° ENE visible
4 Apr 5.0 02:33:03 10° NNW 02:36:32 41° N 02:36:32 41° N visible
5 Apr 5.6 01:55:05 10° N 01:58:19 32° NNE 01:58:19 32° NNE visible
5 Apr 6.0 03:37:39 10° NW 03:38:27 13° NW 03:38:27 13° NW visible
6 Apr 6.2 01:17:21 10° N 01:20:14 23° NNE 01:20:14 23° NNE visible
6 Apr 5.9 02:58:55 10° NNW 03:00:23 18° NW 03:00:23 18° NW visible
7 Apr 6.6 00:40:01 10° NNE 00:42:16 15° NE 00:42:16 15° NE visible
7 Apr 5.8 02:20:33 10° NNW 02:22:25 22° NNW 02:22:25 22° NNW visible
8 Apr 5.9 01:42:25 10° NNW 01:44:32 24° N 01:44:32 24° N visible
9 Apr 6.2 01:04:29 10° N 01:06:43 23° N 01:06:43 23° N visible
9 Apr 6.5 02:46:48 10° NW 02:46:52 10° NW 02:46:52 10° NW visible
10 Apr 6.4 00:26:49 10° N 00:28:56 18° NNE 00:28:56 18° NNE visible
10 Apr 6.3 02:08:10 10° NNW 02:09:05 15° NW 02:09:05 15° NW visible
10 Apr 6.7 23:49:38 10° NNE 23:51:12 13° NE 23:51:12 13° NE visible
11 Apr 6.2 01:29:52 10° NNW 01:31:21 19° NNW 01:31:21 19° NNW visible
12 Apr 6.2 00:51:46 10° NNW 00:53:39 22° N 00:53:39 22° N visible
13 Apr 6.3 00:13:54 10° N 00:15:59 21° NNE 00:15:59 21° NNE visible
13 Apr 6.6 01:56:00 10° NW 01:56:09 11° NW 01:56:09 11° NW visible
13 Apr 6.4 23:36:17 10° N 23:38:20 17° NNE 23:38:20 17° NNE visible
